EZY48AM EGGW-LERS

Flight info

Callsign EZY48AM
Flight time N/A
Altitude 35000
Route RODNI N27 ICTAM Q63 CPT UN859 SOPIL DCT BALAN DCT EVPOK DCT NARAK DCT GAI DCT LOMRA DCT ROCAN DCT PUMAL/N0414F230 N31 BERGA
Aircraft A319/M-SDE3FGHIRWY/LB1

Departure

Time 2026-05-05 08:08
Airport London Luton Airport (EGGW)

Arrival

Time N/A
Airport Reus Airport (LERS)
Time Latitude Longitude Altitude Speed Heading
2026-05-05 07:48 51.87925 -0.37924 524 ft 0 kts 101°
2026-05-05 08:00 51.87929 -0.37953 523 ft 4 kts 100°
2026-05-05 08:00 51.87932 -0.37988 523 ft 4 kts 112°
2026-05-05 08:00 51.87948 -0.38008 523 ft 4 kts 200°
2026-05-05 08:01 51.87967 -0.37993 523 ft 0 kts 208°
2026-05-05 08:03 51.87956 -0.38002 523 ft 6 kts 204°
2026-05-05 08:04 51.87891 -0.38013 523 ft 12 kts 172°
2026-05-05 08:04 51.87812 -0.37941 523 ft 13 kts 131°
2026-05-05 08:04 51.87769 -0.37808 523 ft 14 kts 115°
2026-05-05 08:04 51.87727 -0.37661 520 ft 16 kts 115°
2026-05-05 08:05 51.87669 -0.37501 521 ft 16 kts 137°
2026-05-05 08:05 51.87567 -0.37461 522 ft 17 kts 189°
2026-05-05 08:05 51.87491 -0.37609 523 ft 18 kts 253°
2026-05-05 08:05 51.87457 -0.37802 523 ft 18 kts 254°
2026-05-05 08:06 51.87425 -0.37987 524 ft 15 kts 248°
2026-05-05 08:06 51.87363 -0.38070 523 ft 7 kts 205°
2026-05-05 08:06 51.87312 -0.38110 522 ft 9 kts 204°
2026-05-05 08:06 51.87253 -0.38091 524 ft 9 kts 129°
2026-05-05 08:07 51.87257 -0.38032 524 ft 0 kts 73°
2026-05-05 08:07 51.87266 -0.37982 524 ft 23 kts 75°
2026-05-05 08:07 51.87382 -0.37312 522 ft 99 kts 74°
2026-05-05 08:07 51.87624 -0.35918 518 ft 156 kts 74°
2026-05-05 08:08 51.87916 -0.34173 1139 ft 156 kts 73°
2026-05-05 08:08 51.88199 -0.32510 1921 ft 156 kts 71°
2026-05-05 08:08 51.88523 -0.30721 2364 ft 176 kts 71°
2026-05-05 08:08 51.88889 -0.28710 2767 ft 195 kts 71°
2026-05-05 08:09 51.89196 -0.26554 3390 ft 200 kts 85°
2026-05-05 08:09 51.88853 -0.24314 3909 ft 217 kts 118°
2026-05-05 08:09 51.87727 -0.22622 4021 ft 227 kts 154°
2026-05-05 08:09 51.86174 -0.22322 4015 ft 230 kts 190°
2026-05-05 08:10 51.84779 -0.23543 4017 ft 233 kts 228°
2026-05-05 08:10 51.84084 -0.25873 4487 ft 232 kts 257°
2026-05-05 08:10 51.83694 -0.28478 5104 ft 246 kts 257°
2026-05-05 08:10 51.83274 -0.31262 5730 ft 264 kts 257°
2026-05-05 08:11 51.82827 -0.34207 6361 ft 275 kts 257°
2026-05-05 08:11 51.82364 -0.37232 6949 ft 277 kts 257°
2026-05-05 08:11 51.81900 -0.40264 7552 ft 279 kts 257°
2026-05-05 08:11 51.81436 -0.43311 8163 ft 280 kts 257°
2026-05-05 08:12 51.80976 -0.46345 8774 ft 282 kts 257°
2026-05-05 08:12 51.80507 -0.49427 9406 ft 283 kts 257°
2026-05-05 08:12 51.80034 -0.52527 10033 ft 285 kts 257°
2026-05-05 08:12 51.79289 -0.55531 10557 ft 299 kts 238°
2026-05-05 08:13 51.77766 -0.57975 10833 ft 325 kts 211°
2026-05-05 08:13 51.75554 -0.59089 11118 ft 347 kts 182°
2026-05-05 08:13 51.73123 -0.58580 11726 ft 356 kts 168°
2026-05-05 08:13 51.70690 -0.57707 12486 ft 360 kts 167°
2026-05-05 08:14 51.68235 -0.56767 13262 ft 364 kts 166°
2026-05-05 08:14 51.65762 -0.55804 14005 ft 367 kts 166°
2026-05-05 08:14 51.63264 -0.54839 14706 ft 370 kts 166°
2026-05-05 08:14 51.60757 -0.53886 15422 ft 372 kts 166°
2026-05-05 08:15 51.58233 -0.52937 16138 ft 374 kts 167°
2026-05-05 08:15 51.55709 -0.51999 16835 ft 376 kts 167°
2026-05-05 08:15 51.53187 -0.51072 17516 ft 378 kts 167°
2026-05-05 08:15 51.50610 -0.50128 18222 ft 381 kts 167°
2026-05-05 08:16 51.48022 -0.49183 18830 ft 383 kts 167°
2026-05-05 08:16 51.45409 -0.48234 19413 ft 386 kts 167°
2026-05-05 08:16 51.42776 -0.47282 20004 ft 389 kts 167°
2026-05-05 08:16 51.40129 -0.46318 20583 ft 392 kts 167°
2026-05-05 08:17 51.37610 -0.45393 21105 ft 395 kts 167°
2026-05-05 08:17 51.34920 -0.44408 21659 ft 398 kts 167°
2026-05-05 08:17 51.32241 -0.43431 22188 ft 401 kts 167°
2026-05-05 08:17 51.29520 -0.42434 22721 ft 403 kts 167°
2026-05-05 08:18 51.26795 -0.41434 23234 ft 406 kts 167°
2026-05-05 08:18 51.24023 -0.40421 23711 ft 409 kts 167°
2026-05-05 08:18 51.21238 -0.39405 24163 ft 411 kts 168°
2026-05-05 08:18 51.18446 -0.38393 24591 ft 413 kts 168°
2026-05-05 08:19 51.15639 -0.37380 25034 ft 415 kts 168°
2026-05-05 08:19 51.12816 -0.36362 25490 ft 416 kts 168°
2026-05-05 08:19 51.09988 -0.35346 25932 ft 417 kts 168°
2026-05-05 08:19 51.07148 -0.34329 26380 ft 419 kts 168°
2026-05-05 08:20 51.04299 -0.33302 26808 ft 421 kts 168°
2026-05-05 08:20 51.01443 -0.32264 27231 ft 422 kts 168°
2026-05-05 08:20 50.98566 -0.31220 27630 ft 424 kts 168°
2026-05-05 08:20 50.95688 -0.30184 28032 ft 425 kts 168°
2026-05-05 08:21 50.92793 -0.29146 28433 ft 427 kts 168°
2026-05-05 08:21 50.89887 -0.28108 28812 ft 429 kts 168°
2026-05-05 08:21 50.86966 -0.27071 29194 ft 430 kts 169°
2026-05-05 08:21 50.84037 -0.26034 29564 ft 432 kts 169°
2026-05-05 08:22 50.81132 -0.25005 29933 ft 434 kts 169°
2026-05-05 08:22 50.78195 -0.23958 30366 ft 432 kts 168°
2026-05-05 08:22 50.75264 -0.22909 30771 ft 431 kts 169°
2026-05-05 08:22 50.72337 -0.21862 31154 ft 431 kts 169°
2026-05-05 08:23 50.69407 -0.20811 31531 ft 431 kts 169°
2026-05-05 08:23 50.66479 -0.19762 31903 ft 431 kts 169°
2026-05-05 08:23 50.63549 -0.18718 32286 ft 431 kts 169°
2026-05-05 08:23 50.60625 -0.17685 32663 ft 431 kts 169°
2026-05-05 08:24 50.57693 -0.16657 33043 ft 431 kts 169°
2026-05-05 08:24 50.54764 -0.15631 33425 ft 431 kts 169°
2026-05-05 08:24 50.51841 -0.14605 33811 ft 431 kts 169°
2026-05-05 08:24 50.48914 -0.13576 34162 ft 430 kts 169°
2026-05-05 08:25 50.45995 -0.12546 34474 ft 431 kts 169°
2026-05-05 08:25 50.43069 -0.11510 34783 ft 431 kts 169°
2026-05-05 08:25 50.40136 -0.10478 34937 ft 432 kts 169°
2026-05-05 08:25 50.37201 -0.09449 34965 ft 432 kts 169°
2026-05-05 08:26 50.31341 -0.07411 34964 ft 431 kts 169°
2026-05-05 08:26 50.26478 -0.05732 34958 ft 430 kts 169°
2026-05-05 08:27 50.20645 -0.03698 34960 ft 429 kts 169°
2026-05-05 08:27 50.14821 -0.01662 34956 ft 428 kts 169°
2026-05-05 08:28 50.09002 0.00360 34958 ft 428 kts 169°
2026-05-05 08:28 50.03217 0.02575 34956 ft 428 kts 167°
2026-05-05 08:29 49.97463 0.04907 34956 ft 427 kts 167°
2026-05-05 08:30 49.88844 0.08349 34952 ft 425 kts 167°
2026-05-05 08:30 49.83144 0.10562 34945 ft 424 kts 167°
2026-05-05 08:31 49.77420 0.12780 34941 ft 423 kts 167°
2026-05-05 08:31 49.71718 0.15007 34938 ft 422 kts 167°
2026-05-05 08:32 49.66032 0.17231 34934 ft 421 kts 167°
2026-05-05 08:32 49.60364 0.19518 34936 ft 421 kts 167°
2026-05-05 08:33 49.54704 0.21822 34935 ft 420 kts 167°
2026-05-05 08:33 49.49043 0.24105 34935 ft 420 kts 167°
2026-05-05 08:34 49.43395 0.26361 34933 ft 419 kts 167°
2026-05-05 08:34 49.37787 0.28595 34935 ft 419 kts 166°
2026-05-05 08:35 49.32145 0.30842 34931 ft 418 kts 166°
2026-05-05 08:35 49.26522 0.33132 34929 ft 418 kts 166°
2026-05-05 08:36 49.20919 0.35517 34921 ft 418 kts 166°
2026-05-05 08:36 49.15310 0.37853 34913 ft 417 kts 166°
2026-05-05 08:37 49.09698 0.40141 34910 ft 417 kts 166°
2026-05-05 08:37 49.04095 0.42423 34894 ft 417 kts 166°
2026-05-05 08:38 48.98489 0.44724 34898 ft 417 kts 166°
2026-05-05 08:38 48.92884 0.47032 34887 ft 417 kts 166°
2026-05-05 08:39 48.87282 0.49328 34881 ft 417 kts 166°
2026-05-05 08:39 48.81685 0.51614 34881 ft 417 kts 166°
2026-05-05 08:40 48.76077 0.53892 34880 ft 417 kts 166°
2026-05-05 08:40 48.70498 0.56159 34875 ft 417 kts 166°
2026-05-05 08:41 48.64887 0.58435 34877 ft 417 kts 166°
2026-05-05 08:41 48.59279 0.60702 34873 ft 417 kts 166°
2026-05-05 08:42 48.53666 0.62956 34870 ft 417 kts 166°
2026-05-05 08:42 48.48049 0.65209 34862 ft 417 kts 165°
2026-05-05 08:43 48.42439 0.67465 34857 ft 417 kts 165°
2026-05-05 08:43 48.36825 0.69700 34853 ft 417 kts 166°
2026-05-05 08:44 48.31143 0.71454 34848 ft 417 kts 170°
2026-05-05 08:44 48.25441 0.72866 34852 ft 418 kts 171°
2026-05-05 08:45 48.19710 0.74321 34850 ft 418 kts 170°
2026-05-05 08:45 48.13984 0.75863 34853 ft 418 kts 169°
2026-05-05 08:46 48.08261 0.77438 34855 ft 418 kts 169°
2026-05-05 08:46 48.02524 0.79003 34851 ft 418 kts 169°
2026-05-05 08:47 47.96796 0.80542 34852 ft 418 kts 169°
2026-05-05 08:47 47.91062 0.82089 34847 ft 418 kts 169°
2026-05-05 08:48 47.85332 0.83637 34842 ft 418 kts 169°
2026-05-05 08:48 47.79596 0.85180 34840 ft 418 kts 169°
2026-05-05 08:49 47.73892 0.86697 34839 ft 419 kts 169°
2026-05-05 08:49 47.68150 0.88225 34841 ft 419 kts 169°
2026-05-05 08:50 47.62405 0.89757 34845 ft 420 kts 169°
2026-05-05 08:50 47.56654 0.91296 34845 ft 420 kts 169°
2026-05-05 08:51 47.50900 0.92821 34848 ft 420 kts 169°
2026-05-05 08:51 47.45133 0.94343 34850 ft 421 kts 169°
2026-05-05 08:52 47.39361 0.95867 34847 ft 421 kts 169°
2026-05-05 08:52 47.33595 0.97383 34847 ft 421 kts 169°
2026-05-05 08:53 47.27859 0.98890 34846 ft 422 kts 169°
2026-05-05 08:53 47.22077 1.00412 34850 ft 422 kts 169°
2026-05-05 08:54 47.16297 1.01929 34845 ft 422 kts 169°
2026-05-05 08:54 47.10517 1.03443 34847 ft 422 kts 169°